,,,PA_Meas_PMT16A,,PR_Meas_QMR101_102,,RH_Meas_QMH101,,SR_Meas_QMS101,,TA_Meas_QMH101,,GenWind,,GenWind,
date,time,status,PA,status,PR,status,RH,status,SR,status,TA,status,DirAvg,status,SpdAvg,
2010-05-22, 00:00:04,VALID,1009.63,VALID,0,VALID,102.162,VALID,0,VALID,24.6684,VALID,81,VALID,1.14609,
2010-05-22, 00:01:04,VALID,1009.63,VALID,0,VALID,102.124,VALID,0,VALID,24.6684,VALID,93,VALID,0.816406,
2010-05-22, 00:02:04,VALID,1009.61,VALID,0,VALID,102.101,VALID,0,VALID,24.6684,VALID,95,VALID,0.880078,
2010-05-22, 00:03:04,VALID,1009.62,VALID,0,VALID,102.086,VALID,0,VALID,24.6489,VALID,62,VALID,1.28008,
2010-05-22, 00:04:04,VALID,1009.63,VALID,0,VALID,102.055,VALID,0,VALID,24.6684,VALID,98,VALID,1.20078,
2010-05-22, 00:05:04,VALID,1009.59,VALID,0,VALID,102.01,VALID,0,VALID,24.6276,VALID,85,VALID,1.48086,
2010-05-22, 00:06:04,VALID,1009.58,VALID,0,VALID,101.987,VALID,0,VALID,24.6489,VALID,96,VALID,0.9875,
2010-05-22, 00:07:04,VALID,1009.6,VALID,0,VALID,101.956,VALID,0,VALID,24.6489,VALID,90,VALID,0.723828,
2010-05-22, 00:08:04,VALID,1009.56,VALID,0,VALID,101.956,VALID,0,VALID,24.6489,VALID,69,VALID,0.928906,
2010-05-22, 00:09:04,VALID,1009.54,VALID,0,VALID,101.956,VALID,0,VALID,24.6489,VALID,86,VALID,1.25234,
2010-05-22, 00:10:04,VALID,1009.55,VALID,0,VALID,101.941,VALID,0,VALID,24.6294,VALID,98,VALID,1.04883,
2010-05-22, 00:11:04,VALID,1009.54,VALID,0,VALID,101.933,VALID,0,VALID,24.6489,VALID,86,VALID,1.06094,
2010-05-22, 00:12:04,VALID,1009.55,VALID,0,VALID,101.933,VALID,0,VALID,24.6489,VALID,80,VALID,0.764844,
2010-05-22, 00:13:04,VALID,1009.51,VALID,0,VALID,101.895,VALID,0.105969,VALID,24.6489,VALID,83,VALID,0.991016,
2010-05-22, 00:14:04,VALID,1009.53,VALID,0,VALID,101.895,VALID,0,VALID,24.6081,VALID,99,VALID,0.765625,
2010-05-22, 00:15:04,VALID,1009.55,VALID,0,VALID,101.903,VALID,0,VALID,24.6294,VALID,107,VALID,0.635547,
2010-05-22, 00:16:04,VALID,1009.52,VALID,0,VALID,101.88,VALID,0,VALID,24.5886,VALID,82,VALID,0.924219,
2010-05-22, 00:17:04,VALID,1009.52,VALID,0,VALID,101.895,VALID,0,VALID,24.6099,VALID,90,VALID,0.344141,
2010-05-22, 00:18:04,VALID,1009.51,VALID,0,VALID,101.895,VALID,0,VALID,24.5905,VALID,82,VALID,0.748438,
2010-05-22, 00:19:04,VALID,1009.49,VALID,0,VALID,101.911,VALID,0.105969,VALID,24.5691,VALID,72,VALID,0.412109,
2010-05-22, 00:20:04,VALID,1009.46,VALID,0,VALID,101.918,VALID,0,VALID,24.5496,VALID,53,VALID,0.645703,
2010-05-22, 00:21:04,VALID,1009.46,VALID,0,VALID,101.918,VALID,0.105969,VALID,24.5496,VALID,54,VALID,0.56875,
2010-05-22, 00:22:04,VALID,1009.4,VALID,0,VALID,101.941,VALID,0,VALID,24.5301,VALID,60,VALID,0.365234,
2010-05-22, 00:23:04,VALID,1009.4,VALID,0,VALID,101.964,VALID,0,VALID,24.5301,VALID,57,VALID,0.262891,
2010-05-22, 00:24:04,VALID,1009.39,VALID,0,VALID,102.002,VALID,0.105969,VALID,24.532,VALID,57,VALID,0.583984,
2010-05-22, 00:25:04,VALID,1009.4,VALID,0,VALID,102.01,VALID,0,VALID,24.5106,VALID,95,VALID,0.617969,
2010-05-22, 00:26:04,VALID,1009.4,VALID,0,VALID,102.017,VALID,0,VALID,24.5106,VALID,90,VALID,0.394531,
2010-05-22, 00:27:04,VALID,1009.39,VALID,0,VALID,102.04,VALID,0.105969,VALID,24.4911,VALID,90,VALID,0.141016,
2010-05-22, 00:28:04,VALID,1009.37,VALID,0,VALID,102.033,VALID,0,VALID,24.4911,VALID,90,VALID,0.423438,
2010-05-22, 00:29:04,VALID,1009.37,VALID,0,VALID,102.048,VALID,0.105969,VALID,24.493,VALID,74,VALID,0.723047,
2010-05-22, 00:30:04,VALID,1009.36,VALID,0,VALID,102.086,VALID,0.105969,VALID,24.4717,VALID,49,VALID,0.455078,
2010-05-22, 00:31:04,VALID,1009.35,VALID,0,VALID,102.086,VALID,0,VALID,24.493,VALID,41,VALID,0.575,
2010-05-22, 00:32:04,VALID,1009.34,VALID,0,VALID,102.094,VALID,0,VALID,24.4754,VALID,55,VALID,0.01875,
2010-05-22, 00:33:04,VALID,1009.31,VALID,0,VALID,102.094,VALID,0,VALID,24.4754,VALID,80,VALID,0.597656,
2010-05-22, 00:34:04,VALID,1009.31,VALID,0,VALID,102.094,VALID,0,VALID,24.4559,VALID,35,VALID,0.575391,
2010-05-22, 00:35:04,VALID,1009.27,VALID,0,VALID,102.109,VALID,0,VALID,24.4754,VALID,25,VALID,0.325,
2010-05-22, 00:36:04,VALID,1009.28,VALID,0,VALID,102.109,VALID,0,VALID,24.4345,VALID,25,VALID,0,
2010-05-22, 00:37:04,VALID,1009.26,VALID,0,VALID,102.109,VALID,0,VALID,24.4345,VALID,25,VALID,0,
2010-05-22, 00:38:04,VALID,1009.23,VALID,0,VALID,102.116,VALID,0,VALID,24.415,VALID,25,VALID,0,
2010-05-22, 00:39:04,VALID,1009.23,VALID,0,VALID,102.116,VALID,0,VALID,24.4364,VALID,131,VALID,0.171094,
2010-05-22, 00:40:04,VALID,1009.24,VALID,0,VALID,102.116,VALID,0,VALID,24.4169,VALID,131,VALID,0,
2010-05-22, 00:41:04,VALID,1009.21,VALID,0,VALID,102.185,VALID,0,VALID,24.3956,VALID,131,VALID,0.0671875,
2010-05-22, 00:42:04,VALID,1009.18,VALID,0,VALID,102.17,VALID,0,VALID,24.3956,VALID,131,VALID,0.172266,
2010-05-22, 00:43:04,VALID,1009.17,VALID,0,VALID,102.193,VALID,0,VALID,24.3956,VALID,131,VALID,0.00117188,
2010-05-22, 00:44:04,VALID,1009.13,VALID,0,VALID,102.193,VALID,0,VALID,24.3956,VALID,131,VALID,0,
2010-05-22, 00:45:04,VALID,1009.13,VALID,0,VALID,102.185,VALID,0,VALID,24.4169,VALID,131,VALID,0,
2010-05-22, 00:46:04,VALID,1009.12,VALID,0,VALID,102.193,VALID,0,VALID,24.3779,VALID,131,VALID,0,
2010-05-22, 00:47:04,VALID,1009.11,VALID,0,VALID,102.2,VALID,0,VALID,24.3761,VALID,131,VALID,0,
2010-05-22, 00:48:04,VALID,1009.06,VALID,0,VALID,102.223,VALID,0,VALID,24.3761,VALID,131,VALID,0,
2010-05-22, 00:49:04,VALID,1009.05,VALID,0,VALID,102.216,VALID,0,VALID,24.3761,VALID,131,VALID,0,
2010-05-22, 00:50:04,VALID,1009.02,VALID,0,VALID,102.238,VALID,0,VALID,24.3566,VALID,131,VALID,0,
2010-05-22, 00:51:04,VALID,1009.02,VALID,0,VALID,102.246,VALID,0,VALID,24.3566,VALID,131,VALID,0,
2010-05-22, 00:52:04,VALID,1009.03,VALID,0,VALID,102.254,VALID,0,VALID,24.3566,VALID,131,VALID,0,
2010-05-22, 00:53:04,VALID,1009.02,VALID,0,VALID,102.292,VALID,0,VALID,24.3566,VALID,131,VALID,0,
2010-05-22, 00:54:04,VALID,1008.99,VALID,0,VALID,102.307,VALID,0,VALID,24.3352,VALID,131,VALID,0,
2010-05-22, 00:55:04,VALID,1008.98,VALID,0,VALID,102.284,VALID,0,VALID,24.3371,VALID,131,VALID,0,
2010-05-22, 00:56:04,VALID,1008.95,VALID,0,VALID,102.284,VALID,0,VALID,24.3371,VALID,131,VALID,0,
2010-05-22, 00:57:04,VALID,1008.91,VALID,0,VALID,102.299,VALID,0,VALID,24.3176,VALID,131,VALID,0,
2010-05-22, 00:58:04,VALID,1008.91,VALID,0,VALID,102.315,VALID,0,VALID,24.2963,VALID,131,VALID,0.155859,
2010-05-22, 00:59:04,VALID,1008.91,VALID,0,VALID,102.307,VALID,0,VALID,24.3176,VALID,131,VALID,0.278125,
2010-05-22, 01:00:04,VALID,1008.92,VALID,0,VALID,102.345,VALID,0,VALID,24.2768,VALID,131,VALID,0.2625,
2010-05-22, 01:01:04,VALID,1008.91,VALID,0,VALID,102.353,VALID,0,VALID,24.2981,VALID,120,VALID,0.101172,
2010-05-22, 01:02:04,VALID,1008.9,VALID,0,VALID,102.36,VALID,0,VALID,24.2768,VALID,98,VALID,0.192969,
2010-05-22, 01:03:04,VALID,1008.86,VALID,0,VALID,102.36,VALID,0,VALID,24.2981,VALID,98,VALID,0.320313,
2010-05-22, 01:04:04,VALID,1008.88,VALID,0,VALID,102.36,VALID,0.105969,VALID,24.2963,VALID,78,VALID,0.467578,
2010-05-22, 01:05:04,VALID,1008.88,VALID,0,VALID,102.368,VALID,0.105969,VALID,24.2981,VALID,63,VALID,0.544531,
2010-05-22, 01:06:04,VALID,1008.86,VALID,0,VALID,102.368,VALID,0,VALID,24.2981,VALID,64,VALID,0.514063,
2010-05-22, 01:07:04,VALID,1008.88,VALID,0,VALID,102.383,VALID,0,VALID,24.2768,VALID,64,VALID,0.467578,
2010-05-22, 01:08:04,VALID,1008.88,VALID,0,VALID,102.383,VALID,0.105969,VALID,24.2963,VALID,64,VALID,0.320313,
2010-05-22, 01:09:04,VALID,1008.86,VALID,0,VALID,102.406,VALID,0,VALID,24.2768,VALID,64,VALID,0.367578,
2010-05-22, 01:10:04,VALID,1008.87,VALID,0,VALID,102.391,VALID,0,VALID,24.2981,VALID,65,VALID,0.194922,
2010-05-22, 01:11:04,VALID,1008.84,VALID,0,VALID,102.399,VALID,0.105969,VALID,24.3176,VALID,84,VALID,0.511719,
2010-05-22, 01:12:04,VALID,1008.83,VALID,0,VALID,102.406,VALID,0,VALID,24.2981,VALID,89,VALID,0.511328,
2010-05-22, 01:13:04,VALID,1008.81,VALID,0,VALID,102.391,VALID,0.105969,VALID,24.3158,VALID,89,VALID,0.0972656,
2010-05-22, 01:14:04,VALID,1008.78,VALID,0,VALID,102.391,VALID,0,VALID,24.2963,VALID,89,VALID,0,
2010-05-22, 01:15:04,VALID,1008.76,VALID,0,VALID,102.399,VALID,0,VALID,24.3176,VALID,89,VALID,0.552344,
2010-05-22, 01:16:04,VALID,1008.74,VALID,0,VALID,102.414,VALID,0,VALID,24.3371,VALID,85,VALID,0.254297,
2010-05-22, 01:17:04,VALID,1008.68,VALID,0,VALID,102.421,VALID,0.105969,VALID,24.2963,VALID,89,VALID,0.523438,
2010-05-22, 01:18:04,VALID,1008.69,VALID,0,VALID,102.414,VALID,0.105969,VALID,24.3158,VALID,81,VALID,0.535547,
2010-05-22, 01:19:04,VALID,1008.65,VALID,0,VALID,102.444,VALID,0.105969,VALID,24.3158,VALID,77,VALID,0.726953,
2010-05-22, 01:20:04,VALID,1008.62,VALID,0,VALID,102.437,VALID,0,VALID,24.3158,VALID,76,VALID,0.628906,
2010-05-22, 01:21:05,VALID,1008.6,VALID,0,VALID,102.421,VALID,0.105969,VALID,24.3566,VALID,76,VALID,0.485547,
2010-05-22, 01:22:05,VALID,1008.6,VALID,0,VALID,102.437,VALID,0,VALID,24.3352,VALID,97,VALID,0.697266,
2010-05-22, 01:23:05,VALID,1008.58,VALID,0,VALID,102.421,VALID,0.105969,VALID,24.3566,VALID,94,VALID,0.591797,
2010-05-22, 01:24:05,VALID,1008.52,VALID,0,VALID,102.406,VALID,0.105969,VALID,24.3352,VALID,67,VALID,0.477344,
2010-05-22, 01:25:05,VALID,1008.54,VALID,0,VALID,102.429,VALID,0.105969,VALID,24.3547,VALID,92,VALID,0.825781,
2010-05-22, 01:26:05,VALID,1008.53,VALID,0,VALID,102.414,VALID,0.105969,VALID,24.3352,VALID,98,VALID,0.984375,
2010-05-22, 01:27:05,VALID,1008.5,VALID,0,VALID,102.399,VALID,0.105969,VALID,24.3761,VALID,89,VALID,0.812109,
2010-05-22, 01:28:05,VALID,1008.51,VALID,0,VALID,102.399,VALID,0,VALID,24.3566,VALID,76,VALID,0.799219,
2010-05-22, 01:29:05,VALID,1008.49,VALID,0,VALID,102.414,VALID,0.105969,VALID,24.3352,VALID,87,VALID,0.923828,
2010-05-22, 01:30:05,VALID,1008.48,VALID,0,VALID,102.391,VALID,0,VALID,24.3352,VALID,88,VALID,0.431641,
2010-05-22, 01:31:05,VALID,1008.49,VALID,0,VALID,102.391,VALID,0,VALID,24.3566,VALID,88,VALID,1.00039,
2010-05-22, 01:32:05,VALID,1008.49,VALID,0,VALID,102.391,VALID,0.105969,VALID,24.3352,VALID,88,VALID,0.853906,
2010-05-22, 01:33:05,VALID,1008.46,VALID,0,VALID,102.391,VALID,0,VALID,24.3158,VALID,81,VALID,0.7375,
2010-05-22, 01:34:05,VALID,1008.46,VALID,0,VALID,102.376,VALID,0,VALID,24.3352,VALID,88,VALID,0.0976563,
2010-05-22, 01:35:05,VALID,1008.45,VALID,0,VALID,102.383,VALID,0.105969,VALID,24.3352,VALID,115,VALID,0.368359,
2010-05-22, 01:36:05,VALID,1008.46,VALID,0,VALID,102.391,VALID,0.105969,VALID,24.3352,VALID,115,VALID,0.482031,
2010-05-22, 01:37:05,VALID,1008.45,VALID,0,VALID,102.376,VALID,0.105969,VALID,24.3352,VALID,101,VALID,0.677344,
2010-05-22, 01:38:05,VALID,1008.47,VALID,0,VALID,102.376,VALID,0.105969,VALID,24.3352,VALID,97,VALID,0.473828,
2010-05-22, 01:39:05,VALID,1008.44,VALID,0,VALID,102.383,VALID,0.105969,VALID,24.3547,VALID,107,VALID,0.651563,
2010-05-22, 01:40:05,VALID,1008.42,VALID,0,VALID,102.406,VALID,0.105969,VALID,24.3352,VALID,115,VALID,0.34375,
2010-05-22, 01:41:05,VALID,1008.42,VALID,0,VALID,102.383,VALID,0.105969,VALID,24.3352,VALID,135,VALID,0.508594,
2010-05-22, 01:42:05,VALID,1008.39,VALID,0,VALID,102.399,VALID,0.105969,VALID,24.3566,VALID,135,VALID,0.323047,
2010-05-22, 01:43:05,VALID,1008.37,VALID,0,VALID,102.406,VALID,0.105969,VALID,24.3566,VALID,124,VALID,0.676562,
2010-05-22, 01:44:05,VALID,1008.4,VALID,0,VALID,102.399,VALID,0.105969,VALID,24.3352,VALID,132,VALID,0.589844,
2010-05-22, 01:45:05,VALID,1008.38,VALID,0,VALID,102.399,VALID,0.105969,VALID,24.3352,VALID,132,VALID,0.435156,
2010-05-22, 01:46:05,VALID,1008.37,VALID,0,VALID,102.383,VALID,0.105969,VALID,24.3566,VALID,120,VALID,0.633594,
2010-05-22, 01:47:05,VALID,1008.35,VALID,0,VALID,102.406,VALID,0,VALID,24.3566,VALID,137,VALID,0.649219,
2010-05-22, 01:48:05,VALID,1008.32,VALID,0,VALID,102.399,VALID,0.105969,VALID,24.3352,VALID,115,VALID,0.9375,
2010-05-22, 01:49:05,VALID,1008.28,VALID,0,VALID,102.383,VALID,0.105969,VALID,24.3352,VALID,108,VALID,0.0792969,
2010-05-22, 01:50:05,VALID,1008.24,VALID,0,VALID,102.399,VALID,0.105969,VALID,24.3547,VALID,112,VALID,0.407422,
2010-05-22, 01:51:05,VALID,1008.24,VALID,0,VALID,102.421,VALID,0.105969,VALID,24.3158,VALID,135,VALID,0.537891,
2010-05-22, 01:52:05,VALID,1008.21,VALID,0,VALID,102.391,VALID,0,VALID,24.3158,VALID,156,VALID,0.429688,
2010-05-22, 01:53:05,VALID,1008.18,VALID,0,VALID,102.406,VALID,0.105969,VALID,24.3158,VALID,156,VALID,0.351953,
2010-05-22, 01:54:05,VALID,1008.18,VALID,0,VALID,102.406,VALID,0,VALID,24.3176,VALID,132,VALID,0.671094,
2010-05-22, 01:55:05,VALID,1008.15,VALID,0,VALID,102.399,VALID,0.105969,VALID,24.3158,VALID,119,VALID,0.675391,
2010-05-22, 01:56:05,VALID,1008.13,VALID,0,VALID,102.391,VALID,0,VALID,24.3371,VALID,115,VALID,0.555859,
2010-05-22, 01:57:05,VALID,1008.11,VALID,0,VALID,102.391,VALID,0.105969,VALID,24.3158,VALID,114,VALID,0.261328,
2010-05-22, 01:58:05,VALID,1008.12,VALID,0,VALID,102.383,VALID,0.105969,VALID,24.3158,VALID,114,VALID,0,
2010-05-22, 01:59:05,VALID,1008.13,VALID,0,VALID,102.391,VALID,0.105969,VALID,24.3371,VALID,114,VALID,0,
2010-05-22, 02:00:05,VALID,1008.12,VALID,0,VALID,102.383,VALID,0.105969,VALID,24.3158,VALID,114,VALID,0,
2010-05-22, 02:01:05,VALID,1008.11,VALID,0,VALID,102.391,VALID,0.105969,VALID,24.3158,VALID,114,VALID,0,
2010-05-22, 02:02:05,VALID,1008.11,VALID,0,VALID,102.399,VALID,0.105969,VALID,24.3371,VALID,54,VALID,0.548828,
2010-05-22, 02:03:05,VALID,1008.12,VALID,0,VALID,102.399,VALID,0.105969,VALID,24.3352,VALID,97,VALID,0.141016,
2010-05-22, 02:04:05,VALID,1008.11,VALID,0,VALID,102.399,VALID,0.105969,VALID,24.3158,VALID,97,VALID,0.20625,
2010-05-22, 02:05:05,VALID,1008.12,VALID,0,VALID,102.406,VALID,0.105969,VALID,24.3371,VALID,97,VALID,0.0652344,
2010-05-22, 02:06:05,VALID,1008.11,VALID,0,VALID,102.383,VALID,0.105969,VALID,24.3158,VALID,61,VALID,0.544531,
2010-05-22, 02:07:05,VALID,1008.09,VALID,0,VALID,102.383,VALID,0.105969,VALID,24.3371,VALID,49,VALID,0.626953,
2010-05-22, 02:08:05,VALID,1008.08,VALID,0,VALID,102.399,VALID,0,VALID,24.3158,VALID,71,VALID,0.421875,
2010-05-22, 02:09:05,VALID,1008.08,VALID,0,VALID,102.368,VALID,0.105969,VALID,24.3371,VALID,60,VALID,0.619141,
2010-05-22, 02:10:05,VALID,1008.06,VALID,0,VALID,102.376,VALID,0,VALID,24.3176,VALID,55,VALID,0.410547,
2010-05-22, 02:11:05,VALID,1008.03,VALID,0,VALID,102.36,VALID,0,VALID,24.2981,VALID,55,VALID,0.501172,
2010-05-22, 02:12:05,VALID,1008.04,VALID,0,VALID,102.36,VALID,0.105969,VALID,24.2981,VALID,55,VALID,0.284375,
2010-05-22, 02:13:05,VALID,1008.02,VALID,0,VALID,102.353,VALID,0,VALID,24.2981,VALID,55,VALID,0.184375,
2010-05-22, 02:14:05,VALID,1008.03,VALID,0,VALID,102.338,VALID,0,VALID,24.2981,VALID,55,VALID,0,
2010-05-22, 02:15:05,VALID,1008,VALID,0,VALID,102.353,VALID,0.105969,VALID,24.2768,VALID,55,VALID,0,
2010-05-22, 02:16:05,VALID,1007.98,VALID,0,VALID,102.338,VALID,0.105969,VALID,24.2573,VALID,55,VALID,0.0015625,
2010-05-22, 02:17:05,VALID,1007.95,VALID,0,VALID,102.368,VALID,0.105969,VALID,24.2786,VALID,55,VALID,0,
2010-05-22, 02:18:05,VALID,1007.91,VALID,0,VALID,102.36,VALID,0.105969,VALID,24.2786,VALID,55,VALID,0,
2010-05-22, 02:19:05,VALID,1007.93,VALID,0,VALID,102.383,VALID,0,VALID,24.2573,VALID,55,VALID,0,
2010-05-22, 02:20:05,VALID,1007.91,VALID,0,VALID,102.383,VALID,0,VALID,24.2591,VALID,55,VALID,0,
2010-05-22, 02:21:05,VALID,1007.95,VALID,0,VALID,102.391,VALID,0.105969,VALID,24.2573,VALID,55,VALID,0,
2010-05-22, 02:22:05,VALID,1007.95,VALID,0,VALID,102.399,VALID,0,VALID,24.2591,VALID,55,VALID,0,
2010-05-22, 02:23:05,VALID,1007.96,VALID,0,VALID,102.429,VALID,0.105969,VALID,24.2378,VALID,55,VALID,0,
2010-05-22, 02:24:05,VALID,1007.97,VALID,0,VALID,102.414,VALID,0.105969,VALID,24.2183,VALID,55,VALID,0,
2010-05-22, 02:25:05,VALID,1007.97,VALID,0,VALID,102.437,VALID,0.105969,VALID,24.1988,VALID,55,VALID,0,
2010-05-22, 02:26:05,VALID,1008,VALID,0,VALID,102.406,VALID,0.105969,VALID,24.1988,VALID,55,VALID,0,
2010-05-22, 02:27:05,VALID,1007.99,VALID,0,VALID,102.421,VALID,0.105969,VALID,24.1988,VALID,55,VALID,0,
2010-05-22, 02:28:05,VALID,1008.02,VALID,0,VALID,102.444,VALID,0.105969,VALID,24.2202,VALID,55,VALID,0.176563,
2010-05-22, 02:29:05,VALID,1008.03,VALID,0,VALID,102.437,VALID,0.105969,VALID,24.1812,VALID,55,VALID,0,
2010-05-22, 02:30:05,VALID,1008.03,VALID,0,VALID,102.444,VALID,0,VALID,24.1599,VALID,55,VALID,0,
2010-05-22, 02:31:05,VALID,1008.03,VALID,0,VALID,102.452,VALID,0.105969,VALID,24.1599,VALID,55,VALID,0.0617188,
2010-05-22, 02:32:05,VALID,1008.08,VALID,0,VALID,102.452,VALID,0,VALID,24.1812,VALID,55,VALID,0,
2010-05-22, 02:33:05,VALID,1008.07,VALID,0,VALID,102.444,VALID,0.105969,VALID,24.1617,VALID,55,VALID,0,
2010-05-22, 02:34:05,VALID,1008.1,VALID,0,VALID,102.444,VALID,0.105969,VALID,24.1404,VALID,55,VALID,0.197656,
2010-05-22, 02:35:05,VALID,1008.05,VALID,0,VALID,102.429,VALID,0,VALID,24.1404,VALID,55,VALID,0,
2010-05-22, 02:36:05,VALID,1008.06,VALID,0,VALID,102.437,VALID,0.105969,VALID,24.1599,VALID,55,VALID,0,
2010-05-22, 02:37:05,VALID,1008.06,VALID,0,VALID,102.46,VALID,0,VALID,24.1812,VALID,55,VALID,0,
2010-05-22, 02:38:05,VALID,1008.08,VALID,0,VALID,102.467,VALID,0.105969,VALID,24.2007,VALID,79,VALID,0.363672,
2010-05-22, 02:39:05,VALID,1008.08,VALID,0,VALID,102.452,VALID,0,VALID,24.1812,VALID,216,VALID,0.385938,
2010-05-22, 02:40:05,VALID,1008.07,VALID,0,VALID,102.444,VALID,0,VALID,24.2007,VALID,216,VALID,0.221875,
2010-05-22, 02:41:05,VALID,1008.06,VALID,0,VALID,102.444,VALID,0.105969,VALID,24.1988,VALID,216,VALID,0.000390625,
2010-05-22, 02:42:05,VALID,1008.07,VALID,0,VALID,102.467,VALID,0,VALID,24.1793,VALID,216,VALID,0.209766,
2010-05-22, 02:43:05,VALID,1008.05,VALID,0,VALID,102.475,VALID,0,VALID,24.2007,VALID,216,VALID,0.0175781,
2010-05-22, 02:44:05,VALID,1008.08,VALID,0,VALID,102.475,VALID,0,VALID,24.1812,VALID,216,VALID,0,
2010-05-22, 02:45:05,VALID,1008.04,VALID,0,VALID,102.482,VALID,0.105969,VALID,24.1599,VALID,216,VALID,0,
2010-05-22, 02:46:05,VALID,1008.02,VALID,0,VALID,102.505,VALID,0,VALID,24.1617,VALID,216,VALID,0,
2010-05-22, 02:47:05,VALID,1008.01,VALID,0,VALID,102.475,VALID,0,VALID,24.1812,VALID,216,VALID,0.125781,
2010-05-22, 02:48:05,VALID,1008.01,VALID,0,VALID,102.482,VALID,0,VALID,24.1599,VALID,216,VALID,0.213672,
2010-05-22, 02:49:05,VALID,1007.99,VALID,0,VALID,102.498,VALID,0.105969,VALID,24.1617,VALID,216,VALID,0.171094,
2010-05-22, 02:50:05,VALID,1007.97,VALID,0,VALID,102.46,VALID,0,VALID,24.1617,VALID,216,VALID,0,
2010-05-22, 02:51:05,VALID,1007.96,VALID,0,VALID,102.482,VALID,0.105969,VALID,24.1422,VALID,216,VALID,0,
2010-05-22, 02:52:05,VALID,1007.95,VALID,0,VALID,102.49,VALID,0,VALID,24.1014,VALID,216,VALID,0,
2010-05-22, 02:53:05,VALID,1007.94,VALID,0,VALID,102.49,VALID,0.105969,VALID,24.0819,VALID,216,VALID,0,
2010-05-22, 02:54:05,VALID,1007.95,VALID,0,VALID,102.475,VALID,0.105969,VALID,24.1032,VALID,216,VALID,0,
2010-05-22, 02:55:05,VALID,1007.91,VALID,0,VALID,102.498,VALID,0.105969,VALID,24.0837,VALID,216,VALID,0,
2010-05-22, 02:56:05,VALID,1007.92,VALID,0,VALID,102.475,VALID,0.105969,VALID,24.0643,VALID,216,VALID,0,
2010-05-22, 02:57:05,VALID,1007.92,VALID,0,VALID,102.475,VALID,0,VALID,24.0429,VALID,216,VALID,0,
2010-05-22, 02:58:05,VALID,1007.91,VALID,0,VALID,102.475,VALID,0,VALID,24.0429,VALID,216,VALID,0,
2010-05-22, 02:59:05,VALID,1007.88,VALID,0,VALID,102.498,VALID,0.105969,VALID,24.0429,VALID,216,VALID,0,
2010-05-22, 03:00:05,VALID,1007.9,VALID,0,VALID,102.475,VALID,0.105969,VALID,24.0643,VALID,216,VALID,0,
2010-05-22, 03:01:05,VALID,1007.9,VALID,0,VALID,102.49,VALID,0,VALID,24.0643,VALID,216,VALID,0,
2010-05-22, 03:02:05,VALID,1007.87,VALID,0,VALID,102.482,VALID,0.105969,VALID,24.0429,VALID,216,VALID,0,
2010-05-22, 03:03:05,VALID,1007.88,VALID,0,VALID,102.505,VALID,0.105969,VALID,24.0448,VALID,216,VALID,0,
2010-05-22, 03:04:05,VALID,1007.87,VALID,0,VALID,102.475,VALID,0,VALID,24.0448,VALID,216,VALID,0,
2010-05-22, 03:05:05,VALID,1007.85,VALID,0,VALID,102.505,VALID,0,VALID,24.0448,VALID,216,VALID,0,
2010-05-22, 03:06:05,VALID,1007.85,VALID,0,VALID,102.498,VALID,0,VALID,24.0253,VALID,216,VALID,0,
2010-05-22, 03:07:05,VALID,1007.85,VALID,0,VALID,102.482,VALID,0,VALID,24.004,VALID,216,VALID,0,
2010-05-22, 03:08:05,VALID,1007.86,VALID,0,VALID,102.498,VALID,0,VALID,23.9845,VALID,216,VALID,0,
2010-05-22, 03:09:05,VALID,1007.85,VALID,0,VALID,102.49,VALID,0.105969,VALID,24.0058,VALID,216,VALID,0,
2010-05-22, 03:10:05,VALID,1007.81,VALID,0,VALID,102.475,VALID,0.105969,VALID,23.965,VALID,216,VALID,0,
2010-05-22, 03:11:05,VALID,1007.81,VALID,0,VALID,102.498,VALID,0,VALID,23.9863,VALID,216,VALID,0,
2010-05-22, 03:12:05,VALID,1007.78,VALID,0,VALID,102.498,VALID,0.105969,VALID,23.9668,VALID,216,VALID,0,
2010-05-22, 03:13:05,VALID,1007.73,VALID,0,VALID,102.482,VALID,0,VALID,23.9668,VALID,216,VALID,0,
2010-05-22, 03:14:05,VALID,1007.73,VALID,0,VALID,102.482,VALID,0,VALID,23.926,VALID,216,VALID,0,
2010-05-22, 03:15:05,VALID,1007.7,VALID,0,VALID,102.46,VALID,0,VALID,23.926,VALID,222,VALID,0.359375,
2010-05-22, 03:16:05,VALID,1007.69,VALID,0,VALID,102.475,VALID,0.105969,VALID,23.926,VALID,222,VALID,0.385938,
2010-05-22, 03:17:05,VALID,1007.67,VALID,0,VALID,102.452,VALID,0.105969,VALID,23.926,VALID,221,VALID,0.366016,
2010-05-22, 03:18:05,VALID,1007.65,VALID,0,VALID,102.49,VALID,0.105969,VALID,23.9473,VALID,269,VALID,0.415625,
2010-05-22, 03:19:05,VALID,1007.66,VALID,0,VALID,102.49,VALID,0,VALID,23.9278,VALID,308,VALID,0.325781,
2010-05-22, 03:20:05,VALID,1007.63,VALID,0,VALID,102.482,VALID,0.105969,VALID,23.9065,VALID,308,VALID,0.292578,
2010-05-22, 03:21:05,VALID,1007.64,VALID,0,VALID,102.482,VALID,0.105969,VALID,23.8871,VALID,308,VALID,0.416797,
2010-05-22, 03:22:05,VALID,1007.63,VALID,0,VALID,102.49,VALID,0.105969,VALID,23.9084,VALID,308,VALID,0.164844,
2010-05-22, 03:23:05,VALID,1007.63,VALID,0,VALID,102.49,VALID,0.105969,VALID,23.8676,VALID,308,VALID,0,
2010-05-22, 03:24:05,VALID,1007.64,VALID,0,VALID,102.475,VALID,0,VALID,23.8676,VALID,308,VALID,0,
2010-05-22, 03:25:05,VALID,1007.62,VALID,0,VALID,102.482,VALID,0,VALID,23.8694,VALID,308,VALID,0,
2010-05-22, 03:26:05,VALID,1007.62,VALID,0,VALID,102.46,VALID,0.105969,VALID,23.8481,VALID,308,VALID,0,
2010-05-22, 03:27:05,VALID,1007.61,VALID,0,VALID,102.498,VALID,0,VALID,23.8304,VALID,308,VALID,0.276953,
2010-05-22, 03:28:05,VALID,1007.63,VALID,0,VALID,102.505,VALID,0,VALID,23.8109,VALID,308,VALID,0,
2010-05-22, 03:29:05,VALID,1007.63,VALID,0,VALID,102.498,VALID,0,VALID,23.7896,VALID,308,VALID,0,
2010-05-22, 03:30:05,VALID,1007.61,VALID,0,VALID,102.475,VALID,0,VALID,23.7914,VALID,308,VALID,0,
2010-05-22, 03:31:05,VALID,1007.61,VALID,0,VALID,102.49,VALID,0.105969,VALID,23.7896,VALID,308,VALID,0,
2010-05-22, 03:32:05,VALID,1007.6,VALID,0,VALID,102.46,VALID,0.105969,VALID,23.7701,VALID,308,VALID,0,
2010-05-22, 03:33:05,VALID,1007.57,VALID,0,VALID,102.437,VALID,0.105969,VALID,23.7896,VALID,308,VALID,0,
2010-05-22, 03:34:05,VALID,1007.56,VALID,0,VALID,102.452,VALID,0.105969,VALID,23.8304,VALID,308,VALID,0,
2010-05-22, 03:35:05,VALID,1007.51,VALID,0,VALID,102.437,VALID,0,VALID,23.8304,VALID,308,VALID,0,
2010-05-22, 03:36:05,VALID,1007.5,VALID,0,VALID,102.421,VALID,0.105969,VALID,23.8091,VALID,2,VALID,0,
2010-05-22, 03:37:05,VALID,1007.48,VALID,0,VALID,102.421,VALID,0.105969,VALID,23.8286,VALID,2,VALID,0,
2010-05-22, 03:38:05,VALID,1007.5,VALID,0,VALID,102.429,VALID,0.105969,VALID,23.8091,VALID,2,VALID,0,
2010-05-22, 03:39:05,VALID,1007.5,VALID,0,VALID,102.429,VALID,0.105969,VALID,23.8499,VALID,33,VALID,0,
2010-05-22, 03:40:05,VALID,1007.5,VALID,0,VALID,102.391,VALID,0.105969,VALID,23.8286,VALID,33,VALID,0,
2010-05-22, 03:41:05,VALID,1007.51,VALID,0,VALID,102.421,VALID,0.105969,VALID,23.8481,VALID,33,VALID,0,
2010-05-22, 03:42:05,VALID,1007.52,VALID,0,VALID,102.444,VALID,0.105969,VALID,23.8091,VALID,33,VALID,0,
2010-05-22, 03:43:05,VALID,1007.55,VALID,0,VALID,102.437,VALID,0,VALID,23.8286,VALID,33,VALID,0,
2010-05-22, 03:44:05,VALID,1007.57,VALID,0,VALID,102.421,VALID,0.105969,VALID,23.8091,VALID,33,VALID,0,